VU3FML-13 Weather Reports


time (UTC)temp
C
wind
direction
speed
KPH
gust
KPH
rain 1hr
cm
rain 24hr
cm
rain mn
cm
humidity
%
barometer
mb
20260504045351 -17 0 0.0 0.0 0.00 0.00 0.00 38 944.9
20260504044348 -17 0 0.0 0.0 0.00 0.00 0.00 39 944.9
20260504043345 -17 0 0.0 0.0 0.00 0.00 0.00 41 945.0
20260504042358 -17 0 0.0 0.0 0.00 0.00 0.00 43 945.1
20260504041355 -17 0 0.0 0.0 0.00 0.00 0.00 44 945.1
20260504040352 -17 0 0.0 0.0 0.00 0.00 0.00 45 945.1
20260504035349 -17 0 0.0 0.0 0.00 0.00 0.00 45 945.0
20260504034346 -17 0 0.0 0.0 0.00 0.00 0.00 46 945.1
20260504033359 -17 0 0.0 0.0 0.00 0.00 0.00 46 945.1
20260504032356 -17 0 0.0 0.0 0.00 0.00 0.00 47 945.1
20260504031353 -17 0 0.0 0.0 0.00 0.00 0.00 47 944.9
20260504030350 -17 0 0.0 0.0 0.00 0.00 0.00 47 945.0
20260504025347 -17 0 0.0 0.0 0.00 0.00 0.00 47 945.0
20260504024344 -17 0 0.0 0.0 0.00 0.00 0.00 47 944.9
20260504023357 -17 0 0.0 0.0 0.00 0.00 0.00 48 944.8
20260504022354 -17 0 0.0 0.0 0.00 0.00 0.00 47 944.7
20260504021351 -17 0 0.0 0.0 0.00 0.00 0.00 48 944.5
20260504020348 -17 0 0.0 0.0 0.00 0.00 0.00 48 944.4
20260504015345 -17 0 0.0 0.0 0.00 0.00 0.00 48 944.4
20260504014358 -17 0 0.0 0.0 0.00 0.00 0.00 48 944.2
20260504013355 -17 0 0.0 0.0 0.00 0.00 0.00 48 944.1
20260504012352 -17 0 0.0 0.0 0.00 0.00 0.00 48 944.0
20260504011349 -17 0 0.0 0.0 0.00 0.00 0.00 48 944.0
20260504010346 -17 0 0.0 0.0 0.00 0.00 0.00 48 943.9
20260504005359 -17 0 0.0 0.0 0.00 0.00 0.00 48 943.7
20260504004356 -17 0 0.0 0.0 0.00 0.00 0.00 47 943.6
20260504003353 -17 0 0.0 0.0 0.00 0.00 0.00 47 943.6
20260504002350 -17 0 0.0 0.0 0.00 0.00 0.00 47 943.5
20260504001347 -17 0 0.0 0.0 0.00 0.00 0.00 47 943.3
20260504000346 -17 0 0.0 0.0 0.00 0.00 0.00 47 943.3
20260503235357 -17 0 0.0 0.0 0.00 0.00 0.00 46 943.1
20260503234354 -17 0 0.0 0.0 0.00 0.00 0.00 46 943.0
20260503233351 -17 0 0.0 0.0 0.00 0.00 0.00 46 943.0
20260503232348 -17 0 0.0 0.0 0.00 0.00 0.00 45 942.9
20260503231345 -17 0 0.0 0.0 0.00 0.00 0.00 45 942.8
20260503230359 -17 0 0.0 0.0 0.00 0.00 0.00 44 942.7
20260503225356 -17 0 0.0 0.0 0.00 0.00 0.00 44 942.8
20260503224353 -17 0 0.0 0.0 0.00 0.00 0.00 43 942.7
20260503223350 -17 0 0.0 0.0 0.00 0.00 0.00 42 942.7
20260503222347 -17 0 0.0 0.0 0.00 0.00 0.00 42 942.7
20260503221344 -17 0 0.0 0.0 0.00 0.00 0.00 41 942.7
20260503220357 -17 0 0.0 0.0 0.00 0.00 0.00 40 942.7
20260503215354 -17 0 0.0 0.0 0.00 0.00 0.00 40 942.8
20260503214351 -17 0 0.0 0.0 0.00 0.00 0.00 40 942.9
20260503213348 -17 0 0.0 0.0 0.00 0.00 0.00 41 942.9
20260503212345 -17 0 0.0 0.0 0.00 0.00 0.00 41 943.0
20260503211358 -17 0 0.0 0.0 0.00 0.00 0.00 40 943.0
20260503210355 -17 0 0.0 0.0 0.00 0.00 0.00 40 943.2
20260503205352 -17 0 0.0 0.0 0.00 0.00 0.00 40 943.3
20260503204349 -17 0 0.0 0.0 0.00 0.00 0.00 39 943.3
20260503203346 -17 0 0.0 0.0 0.00 0.00 0.00 38 943.4
20260503202359 -17 0 0.0 0.0 0.00 0.00 0.00 38 943.6
20260503201356 -17 0 0.0 0.0 0.00 0.00 0.00 38 943.6
20260503200353 -17 0 0.0 0.0 0.00 0.00 0.00 38 943.8
20260503195350 -17 0 0.0 0.0 0.00 0.00 0.00 38 943.9
20260503194348 -17 0 0.0 0.0 0.00 0.00 0.00 38 943.9
20260503193345 -17 0 0.0 0.0 0.00 0.00 0.00 38 944.1
20260503192358 -17 0 0.0 0.0 0.00 0.00 0.00 38 944.2
20260503191355 -17 0 0.0 0.0 0.00 0.00 0.00 38 944.3
20260503190352 -17 0 0.0 0.0 0.00 0.00 0.00 37 944.4
20260503185349 -17 0 0.0 0.0 0.00 0.00 0.00 37 944.5
20260503184346 -17 0 0.0 0.0 0.00 0.00 0.00 36 944.6
20260503183359 -17 0 0.0 0.0 0.00 0.00 0.00 36 944.7
20260503181353 -17 0 0.0 0.0 0.00 0.00 0.00 36 944.7
20260503180351 -17 0 0.0 0.0 0.00 0.00 0.00 35 944.7
20260503175347 -17 0 0.0 0.0 0.00 0.00 0.00 35 944.9
20260503174344 -17 0 0.0 0.0 0.00 0.00 0.00 35 944.9
20260503173357 -17 0 0.0 0.0 0.00 0.00 0.00 36 945.0
20260503172355 -17 0 0.0 0.0 0.00 0.00 0.00 36 945.0
20260503171352 -17 0 0.0 0.0 0.00 0.00 0.00 37 944.9
20260503170349 -17 0 0.0 0.0 0.00 0.00 0.00 36 944.9
20260503150346 -17 0 0.0 0.0 0.00 0.00 0.00 32 943.7
20260503131345 -17 0 0.0 0.0 0.00 0.00 0.00 31 942.4
20260503130358 -17 0 0.0 0.0 0.00 0.00 0.00 32 942.3
20260503110356 -17 0 0.0 0.0 0.00 0.00 0.00 30 941.7
20260503090353 -17 0 0.0 0.0 0.00 0.00 0.00 29 942.3
20260503081354 -17 0 0.0 0.0 0.00 0.00 0.00 27 943.0
20260503080352 -17 0 0.0 0.0 0.00 0.00 0.00 28 943.2
20260503072355 -17 0 0.0 0.0 0.00 0.00 0.00 33 943.8
20260503071352 -17 0 0.0 0.0 0.00 0.00 0.00 35 943.8
20260503070349 -17 0 0.0 0.0 0.00 0.00 0.00 35 943.9